Date,TemperatureHighF,TemperatureAvgF,TemperatureLowF,DewpointHighF,DewpointAvgF,DewpointLowF,HumidityHigh,HumidityAvg,HumidityLow,PressureMaxIn,PressureMinIn,WindSpeedMaxMPH,WindSpeedAvgMPH,GustSpeedMaxMPH,PrecipitationSumIn
2013-4-6,78.0,69.7,63.0,51.0,49.1,44.0,64,49,32,29.85,28.17,39,27,55,0.70
2013-4-7,82.0,68.7,57.0,51.0,47.4,42.0,71,49,24,28.23,28.04,37,22,48,0.00
2013-10-25,83.0,83.0,83.0,40.0,40.0,40.0,22,22,22,28.36,28.36,10,10,14,0.00
2013-10-30,67.0,63.4,61.0,34.0,32.8,32.0,35,32,27,28.39,28.32,8,4,10,0.00
2013-10-31,79.0,67.0,60.0,34.0,31.8,29.0,35,28,19,28.46,28.37,8,3,11,0.00
2013-11-1,81.0,71.5,65.0,36.0,31.2,24.0,28,23,18,28.48,28.37,6,3,12,0.00
2013-11-2,79.0,72.1,63.0,36.0,32.6,27.0,31,24,19,28.39,28.19,21,7,26,0.00
2013-11-3,75.0,65.9,58.0,49.0,37.2,32.0,72,36,24,28.19,28.09,29,19,40,0.00
2013-11-4,66.0,59.4,56.0,48.0,45.2,43.0,75,60,44,28.25,28.06,33,25,44,0.00
2013-11-5,67.0,61.1,55.0,43.0,21.8,16.0,63,23,15,28.53,28.25,25,12,39,0.00
2013-11-6,75.0,67.1,59.0,17.0,15.6,14.0,18,14,11,28.62,28.52,8,3,10,0.00
2013-11-7,78.0,72.2,67.0,24.0,21.0,16.0,17,14,13,28.52,28.39,9,2,13,0.00
2013-11-8,77.0,71.8,68.0,27.0,22.3,17.0,20,16,13,28.39,28.29,10,4,14,0.00
2013-11-9,77.0,69.4,57.0,29.0,22.9,9.0,24,17,11,28.42,28.33,9,4,11,0.80
2013-11-10,75.0,66.5,58.0,20.0,13.1,6.0,16,13,9,28.46,28.39,7,3,8,0.00
2013-11-11,80.0,69.4,64.0,27.0,18.8,13.0,16,14,13,28.46,28.38,9,6,10,0.00
2013-11-12,78.0,72.2,69.0,19.0,17.3,15.0,14,12,11,28.52,28.44,9,5,12,0.00
2013-11-13,79.0,72.9,70.0,24.0,16.7,13.0,15,12,10,28.44,28.33,7,4,12,0.00
2013-11-14,77.0,70.2,65.0,18.0,14.1,11.0,15,12,9,28.34,28.09,10,5,14,0.00
2013-11-15,66.0,59.4,53.0,46.0,33.3,15.0,66,41,14,28.09,27.93,34,19,47,0.00
2013-11-16,63.0,58.3,56.0,46.0,43.6,41.0,68,58,49,28.15,28.01,38,28,49,0.00
2013-11-18,71.0,65.6,57.0,47.0,42.1,40.0,69,44,32,28.44,28.34,24,9,35,0.00
2013-11-19,63.0,59.8,56.0,48.0,44.8,43.0,74,58,49,28.34,28.22,34,28,48,0.00
2013-11-20,64.0,59.4,56.0,48.0,45.8,44.0,72,61,49,28.20,28.14,39,29,56,0.00
2013-11-21,63.0,58.6,55.0,51.0,47.1,41.0,78,66,54,28.22,28.16,25,10,37,0.00
2013-11-22,57.0,51.2,47.0,42.0,38.1,34.0,71,61,44,28.32,28.19,22,11,36,0.60
2013-11-23,60.0,52.6,48.0,38.0,36.6,35.0,66,55,43,28.43,28.31,11,7,20,0.00
2013-11-24,64.0,56.2,50.0,38.0,35.3,33.0,62,47,32,28.52,28.43,10,4,22,0.00
2013-11-25,71.0,60.9,52.0,37.0,32.4,29.0,54,36,21,28.57,28.49,9,4,14,0.00
2013-11-26,66.0,62.2,59.0,35.0,31.3,26.0,38,31,26,28.59,28.47,11,6,15,0.00
2013-11-27,67.0,61.2,57.0,30.0,28.8,27.0,35,29,24,28.47,28.30,8,5,15,0.00
2013-11-28,66.0,59.9,56.0,29.0,27.5,26.0,34,29,23,28.41,28.30,6,3,13,0.00
2013-11-29,66.0,61.1,58.0,43.0,34.0,28.0,51,37,26,28.51,28.41,14,5,20,0.00
2013-11-30,74.0,64.1,59.0,39.0,31.6,26.0,45,30,20,28.52,28.43,9,5,11,0.00
2013-12-1,72.0,64.0,62.0,28.0,23.8,16.0,26,21,14,28.58,28.50,10,6,14,0.00
2013-12-2,72.0,66.5,62.0,26.0,18.6,14.0,24,16,12,28.45,28.18,15,5,20,0.00
2013-12-3,68.0,61.9,56.0,46.0,31.5,19.0,68,36,16,28.18,27.98,34,16,51,0.00
2013-12-4,58.0,52.1,47.0,46.0,23.2,10.0,68,35,21,28.29,27.99,35,13,47,0.00
2013-12-5,53.0,46.9,43.0,22.0,15.3,11.0,39,28,23,28.39,28.27,9,5,14,0.00
2013-12-6,51.0,47.0,42.0,27.0,23.1,19.0,46,39,30,28.49,28.37,13,6,24,0.00
2013-12-7,55.0,49.5,43.0,39.0,32.9,28.0,63,53,44,28.39,28.19,39,22,58,0.00
2013-12-8,53.0,47.2,43.0,31.0,23.5,6.0,55,40,21,28.52,28.30,39,12,58,0.00
2013-12-9,49.0,43.4,41.0,6.0,-4.7,-11.0,22,13,9,28.73,28.52,24,10,35,0.00
2013-12-10,57.0,48.4,41.0,-1.0,-7.9,-12.0,12,9,6,28.70,28.48,9,4,12,0.00
2013-12-11,64.0,56.5,50.0,10.0,3.7,-4.0,15,12,9,28.56,28.48,8,3,12,0.00
2013-12-12,65.0,58.2,55.0,34.0,19.9,7.0,37,24,13,28.55,28.42,16,7,26,0.00
2013-12-13,67.0,57.9,53.0,32.0,24.7,9.0,38,28,13,28.58,28.41,16,8,25,0.00
2013-12-14,67.0,60.8,56.0,16.0,13.2,9.0,20,15,12,28.69,28.56,17,9,27,0.00
2013-12-15,71.0,64.0,58.0,20.0,13.5,10.0,18,14,10,28.68,28.53,16,6,23,0.00
2013-12-16,75.0,70.0,66.0,20.0,16.7,14.0,16,13,11,28.55,28.48,7,3,9,0.00
2013-12-17,72.0,69.8,68.0,21.0,17.5,15.0,16,14,12,28.54,28.38,5,3,7,0.00
2013-12-18,73.0,67.1,54.0,40.0,20.8,16.0,58,18,13,28.38,28.10,21,4,30,0.00
2013-12-19,57.0,53.0,50.0,40.0,37.5,34.0,62,55,47,28.10,28.00,32,21,43,0.00
2013-12-20,62.0,53.4,47.0,38.0,32.5,28.0,64,47,28,28.21,28.05,26,15,33,0.00
2013-12-21,61.0,52.8,49.0,40.0,36.9,35.0,65,55,40,28.38,28.15,32,21,46,0.00
2013-12-22,64.0,57.4,53.0,38.0,33.2,26.0,51,41,24,28.61,28.38,11,5,18,0.00
2013-12-23,72.0,64.2,59.0,29.0,25.4,24.0,28,23,18,28.71,28.59,7,3,12,0.00
2013-12-24,76.0,67.0,59.0,27.0,24.9,23.0,26,20,16,28.59,28.49,17,5,25,0.00
2013-12-25,71.0,64.7,60.0,26.0,17.1,6.0,26,17,10,28.64,28.54,22,10,28,0.00
2013-12-26,73.0,65.8,60.0,7.0,2.1,-3.0,11,8,6,28.60,28.50,10,5,14,0.00
2013-12-27,75.0,67.4,62.0,13.0,1.9,-6.0,12,8,5,28.55,28.43,10,5,13,0.00
2013-12-28,67.0,62.8,60.0,19.0,9.7,4.0,20,12,9,28.43,28.27,8,4,14,0.00
2013-12-29,65.0,62.0,58.0,11.0,5.4,-1.0,14,10,8,28.51,28.33,22,11,35,0.00
2013-12-30,68.0,61.0,56.0,11.0,1.5,-3.0,14,9,6,28.59,28.51,8,4,12,0.00
2013-12-31,70.0,62.1,55.0,11.0,4.6,0.0,14,10,6,28.55,28.43,6,3,9,0.00
2014-1-1,72.0,65.0,58.0,7.0,4.0,2.0,10,9,7,28.49,28.44,4,4,8,0.00
2014-1-2,71.0,66.9,63.0,24.0,19.3,12.0,21,16,12,28.49,28.38,9,4,13,0.00